Big Piney, WY

12:43 AM MST on December 18, 2017 (GMT -0700)
Big Piney-Marbleton

Weather History for KBPI - November, 2013

Change the Weather History Date:

Friday, November 22, 2013

  Actual Average Record
Temperature  
Mean Temperature -1 °F 20 °F  
Max Temperature 14 °F 34 °F 56 °F (2014)
Min Temperature -17 °F 7 °F -17 °F (2013)
Degree Days  
Heating Degree Days 66 45  
Month to date heating degree days 822 860  
Since 1 July heating degree days 2083 2440  
Cooling Degree Days 0 0  
Month to date cooling degree days 0 0  
Year to date cooling degree days 89 35  
Moisture  
Dew Point -5 °F    
Average Humidity 81    
Maximum Humidity 95    
Minimum Humidity 67    
Precipitation  
Precipitation 0.00 in 0.01 in 0.07 in (1998)
Month to date precipitation 0.29 0.16  
Year to date precipitation 4.51 6.13  
Sea Level Pressure  
Sea Level Pressure 30.69 in    
Wind  
Wind Speed 4 mph (North)    
Max Wind Speed 12 mph    
Max Gust Speed 14 mph    
Visibility 7 miles    
Events Fog    
T = Trace of Precipitation, MM = Missing Value Source: NWS Daily Summary

Daily Weather History Graph

Daily Weather History Graph

Search for Another Location

Airport or City:

Trip Planner

Search our weather history database for the weather conditions in past years. The results will help you decide how hot, cold, wet, or windy it might be!

Date:

Astronomy

Nov. 22, 2013 Rise Set
Actual Time 7:20 AM MST 4:52 PM MST
Civil Twilight 6:49 AM MST 5:23 PM MST
Nautical Twilight 6:15 AM MST 5:57 PM MST
Astronomical Twilight 5:41 AM MST 6:31 PM MST
Moon 9:29 PM MST (11/22) 11:04 AM MST (11/22)
Length of Visible Light 10h 33m
Length of Day
9h 31m
Waning Gibbous, 77% of the Moon is Illuminated
Nov 22
Waning Gibbous
Nov 25
Last Quarter
Dec 2
New
Dec 9
First Quarter
Dec 17
Full

Hourly Weather History & Observations

Time (MST) Temp. Windchill Dew Point Humidity Pressure Visibility Wind Dir Wind Speed Gust Speed Precip Events Conditions
12:53 AM 5.0 °F -5.6 °F 1.0 °F 84% 30.67 in 0.5 mi NNW 5.8 mph - N/A Fog Light Freezing Fog
1:05 AM 5.0 °F -6.9 °F 1.0 °F 84% 30.46 in 1.8 mi NNW 6.9 mph - N/A   Overcast
1:15 AM 3.9 °F -8.2 °F -0.0 °F 84% 30.47 in 3.0 mi NNW 6.9 mph - N/A   Overcast
1:53 AM 1.9 °F -12.9 °F -2.0 °F 83% 30.70 in 2.0 mi NNW 9.2 mph - N/A   Overcast
1:58 AM 1.0 °F -12.9 °F -2.0 °F 87% 30.48 in 0.8 mi NNW 8.1 mph - N/A   Overcast
2:21 AM 1.9 °F -11.8 °F -0.9 °F 88% 30.48 in 0.5 mi NNW 8.1 mph - N/A Fog Light Freezing Fog
2:43 AM 1.9 °F -7.6 °F -0.0 °F 91% 30.48 in 0.8 mi NW 4.6 mph - N/A   Mist
2:53 AM 1.9 °F -7.6 °F -0.9 °F 88% 30.70 in 2.0 mi North 4.6 mph - N/A   Overcast
3:01 AM 1.9 °F -5.6 °F -0.9 °F 88% 30.48 in 8.0 mi North 3.5 mph - N/A   Overcast
3:53 AM -0.0 °F -17.1 °F -5.1 °F 79% 30.70 in 10.0 mi NNE 11.5 mph - N/A   Overcast
4:07 AM -2.0 °F -15.4 °F -7.1 °F 79% 30.46 in 10.0 mi North 6.9 mph - N/A   Scattered Clouds
4:53 AM -11.9 °F - -17.0 °F 78% 30.78 in 10.0 mi Calm Calm - N/A   Clear
5:17 AM -11.9 °F -23.8 °F -17.0 °F 78% 30.46 in 7.0 mi NW 4.6 mph - N/A   Scattered Clouds
5:22 AM -13.0 °F -25.1 °F -17.0 °F 82% 30.46 in 0.8 mi WNW 4.6 mph - N/A   Mist
5:44 AM -11.0 °F -20.4 °F -15.0 °F 83% 30.45 in 2.0 mi North 3.5 mph - N/A   Mostly Cloudy
5:53 AM -8.0 °F - -11.9 °F 83% 30.76 in 10.0 mi Calm Calm - N/A   Partly Cloudy
6:53 AM -14.1 °F -28.3 °F -17.0 °F 87% 30.81 in 10.0 mi NNW 5.8 mph - N/A   Clear
7:53 AM -16.1 °F -30.6 °F -20.0 °F 82% 30.85 in 9.0 mi East 5.8 mph - N/A   Clear
8:53 AM -7.1 °F -15.9 °F -11.0 °F 83% 30.87 in 10.0 mi North 3.5 mph - N/A   Clear
9:53 AM -2.0 °F - -4.0 °F 91% 30.86 in 10.0 mi Calm Calm - N/A   Clear
10:53 AM 1.0 °F - -2.0 °F 87% 30.86 in 10.0 mi Calm Calm - N/A   Clear
11:53 AM 7.0 °F - 1.9 °F 80% 30.80 in 10.0 mi Calm Calm - N/A   Clear
12:53 PM 10.0 °F 3.6 °F 3.0 °F 73% 30.71 in 10.0 mi North 3.5 mph - N/A   Clear
1:53 PM 12.0 °F 5.9 °F 3.9 °F 70% 30.71 in 10.0 mi ENE 3.5 mph - N/A   Clear
2:53 PM 14.0 °F - 5.0 °F 67% 30.70 in 10.0 mi Calm Calm - N/A   Clear
3:53 PM 10.9 °F 0.2 °F 6.1 °F 81% 30.72 in 10.0 mi NNW 6.9 mph - N/A   Clear
4:53 PM 6.1 °F -2.8 °F 1.9 °F 83% 30.81 in 10.0 mi ESE 4.6 mph - N/A   Clear
5:53 PM 3.9 °F -5.3 °F 1.0 °F 88% 30.81 in 10.0 mi NNE 4.6 mph - N/A   Clear
6:53 PM 3.9 °F -3.4 °F -2.0 °F 76% 30.85 in 10.0 mi North 3.5 mph - N/A   Clear
7:53 PM -0.0 °F -7.9 °F -2.0 °F 91% 30.88 in 10.0 mi ESE 3.5 mph - N/A   Clear
8:53 PM -6.0 °F -18.6 °F -9.0 °F 87% 30.86 in 10.0 mi ENE 5.8 mph - N/A   Clear
9:53 PM -0.9 °F -8.9 °F -6.0 °F 79% 30.81 in 10.0 mi NE 3.5 mph - N/A   Clear
10:53 PM -9.0 °F -18.2 °F -11.9 °F 87% 30.85 in 10.0 mi WNW 3.5 mph - N/A   Clear
11:53 PM -6.0 °F -16.9 °F -11.0 °F 79% 30.78 in 10.0 mi NNE 4.6 mph - N/A   Clear